Location: Kalby
(55.2384°N, 11.8491°E)
Time: 17:04:40
(UTC+00:00)

Daily predictions for brighter satellites

Satellite Brightness Start Highest point End
(mag) Time Altitude Azimuth Time Altitude Azimuth Time Altitude Azimuth
Cosmos 1315 Rocket 2.9 20:45:19 10° NNW 20:49:26 86° ENE 20:53:33 10° SSE
Cosmos 2333 Rocket 2.6 20:44:17 10° S 20:49:40 45° ESE 20:55:06 10° NE
ATLAS 2AS CENTAUR R/B 3.1 20:42:31 10° NW 20:50:22 75° NE 20:57:34 10° ESE
Cosmos-2242 4.2 20:48:40 10° NNW 20:52:46 42° W 20:56:52 10° SSW
Resurs 01 Rocket 4.0 20:50:54 10° SW 20:54:06 19° W 20:57:19 10° NW
Cosmos 1818 3.6 20:51:28 10° SW 20:56:54 78° SE 21:02:23 10° NE
Cosmos 2221 2.7 20:53:29 10° N 20:57:52 62° ENE 21:02:12 10° SSE
Cosmos 773 Rocket 4.1 20:54:24 10° SSW 20:59:41 69° ESE 21:04:58 10° NNE
SL-16 R/B 3.5 20:55:23 10° WSW 21:00:51 47° NW 21:06:21 10° NNE
GEOS 3 Rocket 3.7 20:56:07 10° NE 21:01:30 65° SE 21:06:52 10° SW
ERS-1 Rocket 3.5 20:58:13 10° S 21:03:11 56° W 21:08:10 10° NNW
USA 215 3.6 20:58:43 10° ENE 21:04:54 42° SE 21:11:02 10° SSW
Cosmos 2278 Rocket 2.3 21:01:36 10° NW 21:07:20 89° WSW 21:13:01 10° SSE
Cosmos 1892 3.8 21:07:07 10° SSE 21:10:26 29° E 21:13:45 10° NNE
Cosmos 1844 Rocket 4.3 21:07:05 10° NW 21:11:36 26° WSW 21:16:05 10° SSW
ATLAS 5 CENTAUR R/B 1.6 21:09:08 10° SW 21:13:25 81° SE 21:18:23 10° NE
Aureole 2 Rocket 4.0 21:11:43 10° N 21:13:53 20° NE 21:16:06 10° ESE
Meteor 1-11 4.4 21:08:38 10° SSW 21:14:17 84° WNW 21:20:03 10° NNE
Cosmos 1943 Rocket 3.8 21:10:08 10° NNW 21:15:10 31° NE 21:20:09 10° E
SPOT 5 3.7 21:15:08 10° S 21:19:57 46° W 21:24:32 10° NNW
Lacrosse 5 rocket 1.7 21:16:59 10° W 21:21:10 67° N 21:25:07 10° E
Cosmos 2056 Rocket 4.0 21:16:47 10° NNW 21:22:07 56° NE 21:27:28 10° SE
SL-16 R/B 4.1 21:19:54 10° ESE 21:22:27 13° E 21:25:00 10° ENE
Nadezhda 3 Rocket 4.2 21:16:37 10° N 21:23:00 66° ENE 21:29:11 11° SSE
Spot 4 4.3 21:20:02 10° SE 21:24:40 52° ENE 21:29:19 10° N
USA 81 4.4 21:21:52 10° SSW 21:27:08 68° W 21:32:26 10° N
Cosmos 2058 3.4 21:25:00 11° SSE 21:28:52 45° E 21:32:51 10° NNE
Cosmos 2154 Rocket 4.4 21:23:10 10° SSE 21:29:05 50° E 21:35:04 10° NNE
Cosmos 1408 3.7 21:29:06 12° SSE 21:31:53 29° E 21:35:02 10° NNE
TSX-5 4.1 21:30:53 10° NW 21:34:10 49° WSW 21:37:35 12° SSE
In-Cosmos 22 Rocket 4.3 21:30:07 10° S 21:35:19 59° E 21:40:34 10° NNE
Cosmos 2074 Rocket 4.0 21:30:08 10° S 21:36:21 81° E 21:42:36 10° NNE
Cosmos 1076 Rocket 3.8 21:36:08 11° S 21:40:04 53° E 21:44:15 10° NNE
USA 267 3.6 21:34:08 10° SE 21:40:29 51° SW 21:46:52 10° WNW
Cosmos 1680 Rocket 4.1 21:35:41 10° S 21:40:34 40° ESE 21:45:32 10° NE
CZ-4C R/B 3.6 21:37:33 10° NW 21:43:50 52° NNE 21:51:19 10° E
Cosmos 1842 Rocket 4.4 21:40:26 10° NNW 21:44:36 44° W 21:48:43 10° SSW
JB-3 4.2 21:42:02 10° NNE 21:45:56 87° ESE 21:49:45 10° SSW
COSMOS 2455 3.6 21:41:37 10° NW 21:47:32 53° NE 21:53:27 10° ESE
Cosmos 2322 Rocket 4.2 21:43:27 10° W 21:48:27 32° NW 21:53:30 10° NNE
MTI 3.8 21:46:51 10° NNE 21:49:57 74° WNW 21:53:01 10° SSW
Cosmos 2151 4.0 21:47:18 13° SSE 21:50:35 33° E 21:54:26 10° NNE
ATLAS CENTAUR R/B 3.3 21:53:40 10° W 21:55:51 15° WSW 21:58:02 10° SSW
Cosmos 923 Rocket 4.1 21:52:48 10° SSW 21:58:00 66° ESE 22:03:17 10° NNE
Cosmos 2327 Rocket 4.5 21:52:21 10° S 21:58:32 81° E 22:04:41 10° NNE
Cosmos 1933 4.4 21:55:16 10° N 21:59:01 36° ENE 22:02:24 12° SE
Cosmos 1151 Rocket 3.9 21:55:24 10° N 21:59:33 41° ENE 22:03:13 12° SE
Cosmos 2369 Rocket 3.4 21:54:28 10° NNW 21:59:42 38° NE 22:04:55 10° ESE
Cosmos 1825 2.8 21:58:08 15° SSE 22:00:58 42° E 22:04:34 10° NNE
ALOS 2 3.0 21:58:03 13° SE 22:01:51 57° ENE 22:06:10 10° N
APEX 3.8 21:59:53 10° NNW 22:02:29 33° NE 22:05:01 10° ESE
Cosmos 1980 3.9 21:57:21 10° SSW 22:02:51 57° ESE 22:08:24 10° NE
Cosmos 371 Rocket 3.7 22:02:25 10° NNW 22:07:16 60° ENE 22:11:47 12° SE
COSMOS 2428 3.0 22:02:09 10° SW 22:07:49 74° NW 22:13:32 10° NNE
GP-B 3.8 22:03:42 10° NNE 22:07:57 42° E 22:11:23 14° SSE
Cosmos 1295 Rocket 4.5 22:06:31 12° S 22:12:15 76° E 22:18:21 10° NNE
Cosmos 1624 Rocket 4.1 22:07:24 10° NNW 22:12:39 70° WSW 22:16:57 15° SSE
NOSS 3-4 (A) 4.1 22:06:42 10° NW 22:13:20 53° SW 22:19:46 14° SSE
NOSS 3-4 (C) 4.1 22:06:48 10° NW 22:13:27 54° SW 22:19:54 14° SSE
NOSS 0 Rocket 3.9 22:09:07 10° SSW 22:15:15 76° ESE 22:21:27 10° NE
Terra 3.7 22:11:57 10° SW 22:15:40 22° W 22:19:23 10° NW
Cosmos 1782 4.3 22:16:40 10° N 22:20:07 28° ENE 22:23:34 10° SE
SL-4 R/B 1.9 22:19:54 17° ESE 22:20:59 28° ENE 22:22:52 10° N
Cosmos 2237 Rocket 2.2 22:15:27 10° SSW 22:21:07 70° ESE 22:26:49 10° NE
Genesis I 3.8 22:18:36 14° S 22:21:34 38° SE 22:25:12 10° ENE
Cosmos 2219 Rocket 2.9 22:18:14 10° SW 22:23:44 56° NW 22:29:17 10° NNE
Cosmos 2344 3.9 22:16:44 10° SSW 22:23:50 49° ESE 22:31:42 10° NE
Cosmos 2360 Rocket 4.2 22:21:20 10° W 22:26:20 31° NW 22:31:24 10° NNE
NOSS 3-3 (A) 4.1 22:20:21 10° SW 22:26:27 85° NW 22:33:29 10° NE
NOSS 3-3 (C) 4.1 22:20:27 10° SW 22:26:34 85° NW 22:33:37 10° NE
Thor Agena Rocket 3.5 22:23:19 10° NNE 22:28:31 90° SW 22:33:18 12° SSW
Cosmos 1346 Rocket 4.5 22:28:04 12° SE 22:30:34 21° E 22:33:35 10° NE
Cosmos 2333 Rocket 3.2 22:28:26 10° WSW 22:33:58 49° NW 22:39:34 10° NNE
RESURS DK-1 3.7 22:34:15 10° NNW 22:38:08 38° NE 22:42:01 10° ESE
Cosmos 1515 Rocket 3.9 22:35:30 10° N 22:39:48 57° ENE 22:43:15 15° SSE
BREEZE-M DEB (TANK) 2.9 22:38:26 10° WSW 22:41:00 19° SSW 22:41:22 18° SSW
ATLAS 2AS CENTAUR R/B 3.4 22:33:57 10° NW 22:41:01 43° WSW 22:46:24 15° S
EO 1 Del DPAF 3.4 22:37:57 10° N 22:41:43 67° WNW 22:44:59 13° SSW
Cosmos 1892 4.2 22:42:38 10° SW 22:46:04 32° WNW 22:49:33 10° N
Cosmos 1328 Rocket 3.5 22:42:53 10° NNW 22:47:14 82° W 22:50:25 18° S
Aureole 2 Rocket 3.0 22:44:58 10° NW 22:47:34 33° WSW 22:48:59 20° SSW
Cosmos 1766 Rocket 3.6 22:44:24 17° S 22:47:44 74° E 22:52:10 10° NNE
USA 215 3.2 22:41:49 10° ENE 22:48:27 83° SSE 22:55:01 10° WSW
Cosmos 1606 3.0 22:45:45 10° NNW 22:49:35 60° W 22:52:19 18° S
Okean 3 Rocket 3.6 22:47:02 16° S 22:50:34 88° E 22:55:01 10° NNE
Cosmos 2278 Rocket 3.9 22:46:35 10° NW 22:50:43 21° W 22:54:48 10° SSW
Cosmos 2297 4.0 22:47:12 10° NW 22:52:48 55° WSW 22:57:11 16° S
Cosmos 304 Rocket 3.9 22:48:53 10° NNW 22:53:44 73° ENE 22:58:04 13° SE
Cosmos 2112 Rocket 4.2 22:48:45 10° SSW 22:54:07 76° WNW 22:59:31 10° NNE
Cosmos 2228 Rocket 3.8 22:50:58 10° N 22:55:27 49° ENE 22:59:19 13° SE
Cosmos 2218 Rocket 4.1 22:50:54 15° S 22:56:11 74° E 23:02:29 10° NNE
Cosmos 1420 Rocket 4.3 22:51:23 10° NNW 22:56:34 59° WSW 23:00:36 17° S
Cosmos 158 Rocket 4.2 22:53:26 10° SW 22:58:17 65° WNW 23:03:13 10° NNE
ATLAS 5 CENTAUR R/B 3.4 22:54:13 10° W 22:58:31 39° NNW 23:03:28 10° NE
Cosmos 1943 Rocket 2.2 22:53:52 10° NW 22:59:35 85° WSW 23:04:40 13° SSE
Lacrosse 5 rocket 1.1 22:56:23 10° WNW 23:00:28 78° SSW 23:04:17 10° ESE
Cosmos 2366 rocket 4.1 22:56:35 16° S 23:01:52 77° E 23:08:14 10° NNE
Cosmos 1633 3.4 23:01:11 18° SSE 23:03:28 38° E 23:06:52 10° NNE
SL-16 R/B 2.3 23:00:46 15° SSW 23:05:27 61° ESE 23:11:04 10° NE
Cosmos 1408 4.2 23:03:45 10° SW 23:06:53 28° WNW 23:10:03 10° N
Cosmos 1959 Rocket 4.5 23:06:20 15° S 23:11:29 88° E 23:17:44 10° NNE
YAOGAN 11 4.1 23:09:09 18° SSE 23:12:26 80° WSW 23:16:55 10° NNW
Cosmos 1743 Rocket 4.1 23:12:36 17° SSE 23:15:40 48° E 23:19:53 10° NNE
Cosmos 2341 Rocket 4.4 23:11:46 11° SSW 23:17:38 59° WNW 23:23:48 10° N
Cosmos 332 Rocket 4.0 23:13:16 10° NW 23:17:59 56° WSW 23:21:29 17° S
Cosmos 1331 Rocket 4.3 23:12:54 10° NNW 23:18:14 69° ENE 23:23:32 10° SE
Meteor 2-3 Rocket 3.8 23:21:02 16° S 23:25:38 88° ESE 23:31:25 10° NNE
Cosmos 405 3.0 23:23:17 10° NNW 23:26:50 69° W 23:29:08 20° S
Helios 1A 3.5 23:24:53 18° S 23:27:44 47° W 23:31:48 10° NNW
Cosmos 2151 4.2 23:23:55 10° SW 23:27:52 35° WNW 23:31:49 10° N
Meteor 1-10 Rocket 4.4 23:25:09 10° NNW 23:30:46 70° ENE 23:35:50 12° SSE
Cosmos 1452 Rocket 4.0 23:26:16 10° NW 23:31:18 46° WSW 23:35:06 17° S
CZ-4C R/B 2.9 23:26:07 10° NW 23:32:58 80° SW 23:41:03 10° SE
Meteor 2-6 Rocket 4.2 23:27:40 10° NNW 23:33:14 83° ENE 23:37:54 14° SSE
PSLV R/B 4.0 23:29:24 10° NNE 23:33:31 51° E 23:36:34 17° S
Cosmos 389 Rocket 4.1 23:30:21 10° N 23:33:31 29° ENE 23:36:38 10° SE
COSMOS 2455 3.2 23:27:44 10° NW 23:33:33 50° WSW 23:38:25 15° S
Cosmos 1110 Rocket 4.0 23:30:05 10° NNW 23:35:23 86° WSW 23:40:16 12° SSE
SL-8 Rocket 4.4 23:30:59 12° SSW 23:36:36 57° WNW 23:42:41 10° N
Cosmos 1825 4.1 23:33:35 10° WSW 23:36:40 23° WNW 23:39:46 10° N
Cosmos 1151 Rocket 4.4 23:33:14 10° NNW 23:36:59 29° W 23:40:03 14° SW
Cosmos 1340 3.0 23:34:23 16° SSW 23:37:12 58° WNW 23:40:57 10° N
ALOS 2 4.2 23:35:27 12° SW 23:38:31 23° W 23:42:02 10° NW
Cosmos 1408 Rocket 3.9 23:35:56 16° SSW 23:39:23 61° WNW 23:43:47 10° N
SL-16 R/B 3.5 23:33:56 10° SE 23:39:47 45° ENE 23:45:42 10° N
Cosmos 1727 Rocket 4.4 23:36:58 10° NNW 23:43:01 55° W 23:48:04 15° SSW
Resurs 1-4 Rocket 4.0 23:39:43 10° NE 23:43:37 20° E 23:47:30 10° SE
APEX 4.2 23:41:47 10° WNW 23:43:42 17° WSW 23:44:22 16° SW
Cosmos 2369 Rocket 2.3 23:38:32 10° NW 23:44:03 61° WSW 23:48:49 14° SSE
SeaSat 1 4.2 23:44:06 10° ENE 23:47:45 20° ESE 23:51:20 10° SSE
Cosmos 44 3.0 23:43:37 11° SW 23:47:51 89° NW 23:52:24 10° NE
Cosmos 1500 Rocket 3.5 23:44:49 18° S 23:48:08 89° E 23:52:33 10° NNE
Helios 1B rocket 2.6 23:48:13 10° NNE 23:52:21 63° ESE 23:55:23 17° S
